Other Public Products
Issued by NWS Grand Forks, ND

Home | Current Version | Previous Version | Text Only | Print | Product List | Glossary Off
Versions: 1 2 3 4 5 6 7 8 9 10 11 12 13 14 15 16 17 18 19 20 21 22 23 24 25 26 27 28 29 30 31 32 33 34 35 36 37 38 39 40 41 42 43 44 45 46 47 48 49 50

000
FPUS83 KFGF 050431
OPUFGF
PRAIRIE TO PINES WEATHER ROUNDUP
NATIONAL WEATHER SERVICE EASTERN NORTH DAKOTA/GRAND FORKS ND
1100 PM CDT SAT JUL 04 2015

 **SATELLITE DATA USED TO AUGMENT SKY COVER AT AUTOMATED STATIONS**
 *****  WEATHER ACROSS EASTERN NORTH DAKOTA  *****

CITY           SKY/WX    TMP DP  RH WIND       PRES   REMARKS
GRAND FORKS    CLOUDY    76  66  71 S13       29.70F
GRAND FORKS AF CLOUDY    76  67  73 S12       29.71F
GRAND CITY NWS   N/A     73 N/A N/A S10         N/A
BUXTON         NOT AVBL
DEVILS LAKE    CLOUDY    68  57  68 NE10      29.73R THUNDER
FARGO          MOCLDY    77  65  66 S13       29.77F
WAHPETON ARPT  PTCLDY    70  63  78 S10       29.81F
$$

 *****  WEATHER ACROSS CENTRAL AND WESTERN NORTH DAKOTA  *****

CITY           SKY/WX    TMP DP  RH WIND       PRES   REMARKS
JAMESTOWN      CLOUDY    74  67  78 S9        29.75F
BISMARCK       PTCLDY    77  70  79 S6        29.74S
MINOT          PTCLDY    67  62  84 W8        29.73S
MINOT AFB      PTCLDY    67  67 100 NW9       29.73R
GARRISON         N/A     70  64  81 N5        29.75R
WILLISTON      CLEAR     73  66  78 N18       29.79R
DICKINSON      PTCLDY    69  65  86 SW6       29.76R
HETTINGER      CLOUDY    74  65  73 E6        29.77S
$$

 *****  OTHER OBSERVATIONS NORTHEAST NORTH DAKOTA  *****

CITY           SKY/WX    TMP DP  RH WIND       PRES   REMARKS
WALHALLA       TSTM      66  66 100 MISG      29.79R
LANGDON        TSTM      66  64  94 N16G25    29.78R
CAVALIER       FAIR      66  63  88 NW21G29   29.76R
GRAFTON        FAIR      75  68  78 S12       29.71R
CANDO          FAIR      68  63  83 NE12      29.75R
FORT TOTTEN      N/A     69  65  85 E3        29.95
ROLLA          FAIR      64  64 100 NW7       29.77F
RUGBY          NOT AVBL
 ***** THE ABOVE OBSERVATIONS ARE NON NWS ARE NOT QUALITY
        CONTROLLED AND MAY MIS-REPORT RAIN FOR SNOW...
$$

 *****  OTHER OBSERVATIONS SOUTHEAST NORTH DAKOTA *****

CITY           SKY/WX    TMP DP  RH WIND       PRES   REMARKS
COOPERSTOWN    NOT AVBL
VALLEY CITY    FAIR      73  72  94 S9        29.76F
OAKES            N/A     72  72 100 S8        29.77F
GWINNER        FAIR      73  68  83 SE9       29.79F
SHEYENNE NWR     N/A     74  67  79 S7        29.95
BUFFALO        NOT AVBL
WYNDMERE       NOT AVBL
 ***** THE ABOVE OBSERVATIONS ARE NON NWS ARE NOT QUALITY
       CONTROLLED AND MAY MIS-REPORT RAIN FOR SNOW...
$$

  *****  WEATHER ACROSS NORTHERN MINNESOTA  *****

CITY           SKY/WX    TMP DP  RH WIND       PRES   REMARKS
FLAG ISLAND    NOT AVBL
WARROAD        LGT RAIN  63  59  88 E10       29.83F
ROSEAU         CLOUDY    63  57  82 E13       29.79F
HALLOCK        CLOUDY    70  63  78 E14       29.70F
THF RVR FALLS  CLOUDY    73  64  73 SE9       29.75F
HALSTAD        NOT AVBL
FOSSTON        MOCLDY    72  63  73 S9        29.79F
BAUDETTE       LGT RAIN  69  58  67 N21G31    29.86R
WASKISH        CLOUDY    70  64  83 CALM      29.82F HAZE
CROOKSTON      CLOUDY    75  64  69 S15       29.74F
$$
  *****  WEATHER ACROSS CENTRAL AND WEST MINNESOTA  *****

CITY           SKY/WX    TMP DP  RH WIND       PRES   REMARKS
BEMIDJI        MOCLDY    71  65  81 S7        29.83F
PARK RAPIDS    MOCLDY    71  64  78 S8        29.87R
WADENA         CLEAR     68  64  88 S7        29.87F
DETROIT LAKES  PTCLDY    73  64  73 S9        29.84F
MOORHEAD       MOCLDY    73  64  73 S14       29.78F
FERGUS FALLS   PTCLDY    73  64  73 S10       29.83F
ELBOW LAKE     FAIR      71  65  80 SE9       29.86F
MORRIS MN      CLEAR     70  64  83 SE7       29.87S HAZE
STAPLES        CLEAR     70  64  83 S3        29.89S
WHEATON        FAIR      70  63  78 SE10      29.85F
$$
  *****  WEATHER ELSEWHERE ACROSS MINNESOTA  *****

CITY           SKY/WX    TMP DP  RH WIND       PRES   REMARKS
DULUTH         MOCLDY    61  55  81 SE6       29.95R
INTRNTL FALLS  CLOUDY    69  60  73 VRB3      29.83F
ELY            CLEAR     61  54  77 CALM      29.94F
CLOQUET        PTCLDY    59  55  88 E6        29.94F
BRAINERD       CLEAR     70  65  84 S5        29.91R HAZE
HIBBING        CLOUDY    64  58  80 SE6       29.92S
ALEXANDRIA     CLEAR     71  65  81 S6        29.92R
SAINT CLOUD    CLEAR     70  64  81 S6        29.91R
MINNEAPOLIS    CLEAR     76  62  62 S7        29.92R
$$

  *****  WEATHER ACROSS SOUTH DAKOTA  *****

CITY           SKY/WX    TMP DP  RH WIND       PRES   REMARKS
SIOUX FALLS    PTCLDY    74  63  68 S14       29.90R
BROOKINGS      PTCLDY    70  63  78 SE10      29.91S
WATERTOWN      MOCLDY    72  65  78 S8        29.88R
HURON          CLOUDY    74  66  76 SE13G21   29.80R
SISSETON         N/A     73  65  75 S8        29.82R
ABERDEEN       TSTM      74  68  81 SE20G32   29.79F
MITCHELL       MOCLDY    75  67  76 SE14      29.83R
PIERRE         CLOUDY    81  68  64 S15       29.71F
MOBRIDGE       MOCLDY    77  72  84 E10       29.73S
RAPID CITY     PTCLDY    70  65  84 CALM      29.82R
$$

  *****  SOME WEATHER IN NEARBY STATES *****

CITY           SKY/WX    TMP DP  RH WIND       PRES   REMARKS
GLASGOW MT     CLEAR     72  53  51 NE16      29.79S
GREAT FALLS MT PTCLDY    75  51  43 E6        29.78R
CHEYENNE WY    MOCLDY    70  51  51 SW8       30.04R
SCOTTSBLUFF NE MOCLDY    71  64  78 E6        29.88R
OMAHA NE       CLEAR     70  63  78 SE10      29.95R SMOKE
DES MOINES IA  PTCLDY    70  60  70 S7        29.98R
DAVENPORT IA   CLEAR     66  60  81 SE5       30.02R
CHICAGO IL     PTCLDY    67  57  70 SE6       30.03R SMOKE
EAU CLAIRE WI  PTCLDY    73  64  73 S7        29.94R
LA CROSSE WI   CLEAR     71  65  81 S5        29.95R HAZE
$$

  *****  SOME NATIONAL WEATHER *****

CITY           SKY/WX    TMP DP  RH WIND       PRES   REMARKS
LA GUARDIA NY  MOCLDY    71  62  73 S7        30.01R
RALEIGH NC     MOCLDY    74  68  81 W3        30.05R
ATLANTA GA     LGT RAIN  72  68  87 S9        30.10R
NEW ORLEANS LA PTCLDY    77  70  79 CALM      30.08R
OKLAHOMA CITY  CLEAR     73  70  90 SE7       29.96R
ALBUQUERQUE NM CLOUDY    75  56  51 S9        30.13R
SALT LAKE CITY CLOUDY    82  56  40 CALM      29.94R
LOS ANGELES CA CLOUDY    63  59  87 W8        29.91R
BOISE ID       CLOUDY    89  44  20 NE5       29.75S
SEATTLE WA     PTCLDY    84  43  23 NE8       29.78F
$$

*** WEATHER ACROSS MANITOBA...SASKATCHEWAN AND ONTARIO ***
                ***ONTARIO***

CITY           SKY/WX    TMP DP  RH WIND       PRES   REMARKS
GERALDTON      MOCLDY    59  52  77 S7        29.95S
THUNDER BAY    MOCLDY    57  55  94 NE2       29.97R
SIOUX LOOKOUT  CLOUDY    70  55  60 S7        29.81F
TORONTO        MOCLDY    68  57  68 NW8       30.02R
BIG TROUT LK   LGT RAIN  63  63 100 E3        29.67F FOG
PICKLE LAKE    NOT AVBL
DRYDEN         CLOUDY    72  59  64 S12       29.79F
KENORA         TSTM      63  61  94 E12       29.77
$$
                *** MANITOBA***

CITY           SKY/WX    TMP DP  RH WIND       PRES   REMARKS
BRANDON        PTCLDY    64  64 100 CALM      29.80R
DAUPHIN        CLOUDY    59  57  94 W5        29.80R FOG
ISLAND LAKE    CLOUDY    61  54  77 NW6       29.65S
PILOT MOUND      N/A     64  61  88 N10         N/A
THE PAS        SMOKE     59  52  77 W7        29.76R VSB 3/4
THOMPSON       LGT RAIN  55  52  88 N7        29.67R
WINNIPEG       MOCLDY    64  64 100 VRB2      29.74F
LYNN LAKE      CLOUDY    46  43  87 N12G20    29.76S
CHURCHILL      LGT RAIN  41  41 100 E29G39    29.69F FOG
GILLAM         LGT RAIN  63  59  88 W15       29.58F VSB 1
$$
                ***SASKATCHEWAN***

CITY           SKY/WX    TMP DP  RH WIND       PRES   REMARKS
ESTEVAN        MOCLDY    66  63  88 N8        29.82R
KINDERSLEY     CLOUDY    59  50  72 NW12      29.99R
LLOYDMINSTER   MOCLDY    54  46  76 NW3       29.96R
PRINCE ALBERT  MOCLDY    54  48  82 VRB2      29.87R SMOKE
REGINA         PTCLDY    66  61  82 N5        29.84S SMOKE



USA.gov is the U.S. government's official web portal to all federal, state and local government web resources and services.